Voltar ao catálogo

SL-14 DEB

AtivoPO
NORAD 26001·DEBRIS·🇷🇺 Russia

Lançado Sep 28, 1991 de Plesetsk Cosmodrome

Loading…

Próximas Passagens (próximas 24 horas)

TLE

AtualizadoSource: Space-Track

Época: Sep 14, 2026, 12:49 UTC

1 26001U 91068L   26257.53421483  .00000066  00000-0  28923-3 0  9994
2 26001  82.2241 299.4704 0087373 245.8196 183.7745 12.68001045245865

Acompanhe SL-14 DEB em tempo real com AllMySat

Download on the App Store